Weather History for EGOP - March, 2013

Change the Weather History Date:

Saturday, March 9, 2013

  Actual Average (EGFF) Record (EGFF)
Temperature  
Mean Temperature 48 °F -  
Max Temperature 55 °F 47 °F 59 °F (2014)
Min Temperature 42 °F 37 °F 33 °F (2004)
Degree Days  
Heating Degree Days 16    
Moisture  
Dew Point 45 °F    
Average Humidity 87    
Maximum Humidity 100    
Minimum Humidity 65    
Precipitation  
Precipitation 0.02 in - - ()
Sea Level Pressure  
Sea Level Pressure 29.56 in    
Wind  
Wind Speed 9 mph ()    
Max Wind Speed 13 mph    
Max Gust Speed -    
Visibility 5.0 miles    
Events      
Averages and records for this station are not official NWS values.
T = Trace of Precipitation, MM = Missing Value Source: Averaged Metar Reports

Daily Weather History Graph

Daily Weather History Graph

Search for Another Location

Airport or City:

Trip Planner

Search our weather history database for the weather conditions in past years. The results will help you decide how hot, cold, wet, or windy it might be!

Date:

Astronomy

Mar. 09, 2013 Rise Set
Actual Time 6:44 AM GMT 6:11 PM GMT
Civil Twilight 6:11 AM GMT 6:45 PM GMT
Nautical Twilight 5:32 AM GMT 7:24 PM GMT
Astronomical Twilight 4:53 AM GMT 8:03 PM GMT
Moon 5:14 AM GMT (3/9) 3:46 PM GMT (3/9)
Length of Visible Light 12h 33m
Length of Day
11h 26m
Waning Crescent, 7% of the Moon is Illuminated
Mar 9
Waning Crescent
Mar 11
New
Mar 19
First Quarter
Mar 27
Full
Apr 3
Last Quarter

Hourly Weather History & Observations

Time (GMT) Temp. Windchill Dew Point Humidity Pressure Visibility Wind Dir Wind Speed Gust Speed Precip Events Conditions
12:50 AM 48.2 °F - 46.4 °F 93% 29.50 in - ESE 9.2 mph - N/A   Mostly Cloudy
1:50 AM 48.2 °F - 46.4 °F 93% 29.50 in 3.1 mi ESE 9.2 mph - N/A   Mostly Cloudy
2:50 AM 48 °F - 47 °F 93% 29.52 in 4 mi ESE 10.4 mph - -   Partly Cloudy
2:50 AM 48.2 °F - 46.4 °F 93% 29.50 in 3.7 mi ESE 10.4 mph - N/A   Mostly Cloudy
3:50 AM 48.2 °F - 46.4 °F 93% 29.50 in 4.3 mi ESE 10.4 mph - N/A   Mostly Cloudy
4:50 AM 48.2 °F - 46.4 °F 93% 29.50 in 3.1 mi ESE 8.1 mph - N/A   Mostly Cloudy
5:50 AM 47 °F - 46 °F 95% 29.53 in 3 mi ESE 10.4 mph - -   Scattered Clouds
5:50 AM 48.2 °F - 46.4 °F 93% 29.50 in - ESE 10.4 mph - N/A   Mostly Cloudy
6:50 AM 46.4 °F 40.7 °F 46.4 °F 100% 29.53 in - ESE 12.7 mph - N/A   Scattered Clouds
7:50 AM 46.4 °F 41.9 °F 46.4 °F 100% 29.53 in - ESE 9.2 mph - N/A   Scattered Clouds
8:50 AM 47 °F - 46 °F 92% 29.57 in 3 mi ESE 12.7 mph - -   Mostly Cloudy
8:50 AM 48.2 °F - 46.4 °F 93% 29.56 in 3.1 mi ESE 12.7 mph - N/A   Mostly Cloudy
9:50 AM 50.0 °F - 46.4 °F 87% 29.56 in 5.0 mi ESE 12.7 mph - N/A   Mostly Cloudy
10:50 AM 50.0 °F - 44.6 °F 82% 29.56 in 6.2 mi ESE 11.5 mph - N/A   Partly Cloudy
11:50 AM 52 °F - 46 °F 74% 29.59 in 8 mi ESE 11.5 mph - -   Scattered Clouds
11:50 AM 51.8 °F - 46.4 °F 82% 29.56 in 6.2 mi ESE 11.5 mph - N/A   Scattered Clouds
12:50 PM 51.8 °F - 46.4 °F 82% 29.56 in 6.2 mi ESE 12.7 mph - N/A   Scattered Clouds
1:50 PM 55.4 °F - 44.6 °F 67% 29.56 in 6.2 mi SE 11.5 mph - N/A   Mostly Cloudy
2:50 PM 53 °F - 45 °F 65% 29.58 in 12 mi ESE 10.4 mph - -   Mostly Cloudy
2:50 PM 53.6 °F - 44.6 °F 72% 29.56 in 6.2 mi ESE 10.4 mph - N/A   Mostly Cloudy
3:50 PM 51.8 °F - 44.6 °F 76% 29.56 in 6.2 mi ESE 6.9 mph - N/A   Mostly Cloudy
4:50 PM 50.0 °F - 44.6 °F 82% 29.56 in 6.2 mi ESE 10.4 mph - N/A   Mostly Cloudy
5:50 PM 49 °F - 46 °F 83% 29.60 in 7 mi East 8.1 mph - -   Overcast
5:50 PM 48.2 °F - 46.4 °F 93% 29.59 in 6.2 mi East 8.1 mph - N/A   Overcast
6:50 PM 48.2 °F - 46.4 °F 93% 29.59 in 4.3 mi East 8.1 mph - N/A   Overcast
7:50 PM 46.4 °F 42.9 °F 44.6 °F 93% 29.59 in 5.0 mi East 6.9 mph - N/A   Mostly Cloudy
8:50 PM 46 °F - 43 °F 86% 29.61 in 4 mi ENE 10.4 mph - -   Scattered Clouds
8:50 PM 46.4 °F 41.5 °F 42.8 °F 87% 29.59 in 4.3 mi ENE 10.4 mph - N/A   Mostly Cloudy
9:50 PM 44.6 °F 39.2 °F 41.0 °F 87% 29.62 in 3.7 mi ENE 10.4 mph - N/A   Scattered Clouds
10:50 PM 42.8 °F 37.5 °F 41.0 °F 93% 29.62 in 3.1 mi East 9.2 mph - N/A   Scattered Clouds
11:50 PM 43 °F - 41 °F 88% 29.64 in 3 mi East 5.8 mph - -   Mostly Cloudy
11:50 PM 42.8 °F 39.3 °F 41.0 °F 93% 29.62 in 3.1 mi East 5.8 mph - N/A   Mostly Cloudy